Regional Weather Roundup
Issued by NWS Sterling, VA

Home | Current Version | Previous Version | Graphics & Text | Print | Product List | Glossary On
Versions: 1 2 3 4 5 6 7 8 9 10 11 12 13 14 15 16 17 18 19 20 21 22 23 24 25 26 27 28
000
ASUS41 KLWX 240111
RWRLWX

REGIONAL WEATHER ROUNDUP
NATIONAL WEATHER SERVICE BALTIMORE MD/WASHINGTON DC
900 PM EDT FRI JUN 23 2017

Note: "FAIR" indicates few or no clouds below 12,000 feet
with no significant weather and/or obstructions to visibility.
 TC=TEMPERATURE CELSIUS

 * =Non NWS site. Station does not report precipitation (e.g. rain,
    snow, etc.), thunder, or fog.

DCZ001-MDZ009-015-VAZ040>042-051-053>054-240200-
WASHINGTON METRO

CITY           SKY/WX    TMP DP  RH WIND       PRES   REMARKS
WASHINGTON NAT MOCLDY    85  74  69 S12       29.71R HX  92
DULLES         MOCLDY    82  71  69 S15G21    29.70S
ANDREWS AFB    PTCLDY    82  72  72 S14       29.72R
FT BELVOIR     PTCLDY    84  72  67 S5        29.71R HX  90
QUANTICO       MOCLDY    85  76  74 SW8       29.72S HX  94
COLLEGE PARK*  CLEAR     85  72  65 S5        29.70S HX  90
LEESBURG*      PTCLDY    82  75  78 S6        29.71S
MANASSAS*      MOCLDY    82  73  74 S3        29.71S
GAITHERSBURG*  PTCLDY    82  72  71 SW9       29.72S

$$

MDZ006>007-011-014-240200-
BALTIMORE METRO

CITY           SKY/WX    TMP DP  RH WIND       PRES   REMARKS
BWI AIRPORT    MOCLDY    84  74  71 SW10      29.69R HX  91
MD SCIENCE CTR   N/A     86  74  67 MISG      29.69R HX  94
MARTIN STATE   PTCLDY    82  77  83 S10G17    29.70R HX  91
ANNAPOLIS      PTCLDY    84  75  74 S9        29.70R HX  92
FORT MEADE*    PTCLDY    81  72  74 SW7       29.72S

$$

MDZ012-015-019>023-240200-
MARYLAND EASTERN SHORE

CITY           SKY/WX    TMP DP  RH WIND       PRES   REMARKS
OCEAN CITY     CLEAR     80  75  84 SW14      29.76S
SALISBURY      CLEAR     83  75  77 S15       29.75R HX  90
BAY BRIDGE AP* CLOUDY    84  73  70 S7        29.71R HX  91
CAMBRIDGE*     PTCLDY    84  75  74 S7G14     29.73R HX  92
EASTON*        MOCLDY    86  73  66 SW10      29.75R HX  93

$$

MDZ017>025-240200-
SOUTHERN MARYLAND

CITY           SKY/WX    TMP DP  RH WIND       PRES   REMARKS
PATUXENT RIVER CLOUDY    84  73  69 SW10      29.74R HX  90
ST INIGOES     CLOUDY    84  74  71 SW9       29.74R HX  91
LEONARDTOWN*   CLOUDY    82  72  69 SW7       29.75S

$$

MDZ003>005-240200-
NORTH CENTRAL MARYLAND

CITY           SKY/WX    TMP DP  RH WIND       PRES   REMARKS
FREDERICK*     NOT AVBL
HAGERSTOWN APT CLOUDY    80  70  71 NW10      29.70R
WESTMINSTER*   PTCLDY    81  72  74 SW9       29.70S

$$

MDZ501>502-240200-
WESTERN MARYLAND

CITY           SKY/WX    TMP DP  RH WIND       PRES   REMARKS
OAKLAND*       NOT AVBL
CUMBERLAND*    CLOUDY    73  70  88 N5        29.73F

$$

VAZ025>031-240200-
SHENANDOAH VALLEY

CITY           SKY/WX    TMP DP  RH WIND       PRES   REMARKS
WINCHESTER*    MOCLDY    81  64  57 SW5       29.70S
FRONT ROYAL*   MOCLDY    81  70  69 SW7       29.69F
LURAY*         MOCLDY    81  70  69 SW6       29.73S
NEW MARKET*    CLOUDY    80  68  65 SW3       29.71F
STAUNTON*      PTCLDY    78  69  74 S6        29.78F
WAYNESBORO*    MOCLDY    79  71  76 S8        29.78F

$$

WVZ021-048>050-054>055-240200-
EASTERN WEST VIRGINIA PANHANDLE

CITY           SKY/WX    TMP DP  RH WIND       PRES   REMARKS
MARTINSBURG    MOCLDY    83  67  58 SW9       29.67S
PETERSBURG*    CLOUDY    83  68  61 SW5       29.71S

$$

VAZ036>039-050-240200-
CENTRAL FOOTHILLS

CITY           SKY/WX    TMP DP  RH WIND       PRES   REMARKS
CHARLOTTESVILL CLOUDY    83  73  72 SW13      29.74F
CULPEPER*      CLOUDY    83  74  74 S7        29.72F
ORANGE*        CLOUDY    81  72  74 S7        29.73F
GORDONSVILLE*  CLOUDY    82  74  78 SW8       29.73F
WARRENTON*     CLOUDY    82  70  65 S3        29.71F

$$

VAZ055>057-240200-
NORTH AND CENTRAL PIEDMONT

CITY           SKY/WX    TMP DP  RH WIND       PRES   REMARKS
FREDERICKSBRG* PTCLDY    84  74  71 S7        29.72S HX  91
STAFFORD*      PTCLDY    82  73  74 S5        29.76F

$$

NCZ024-NYZ072-PAZ021-071-VAZ022-071-240200-
OTHER REGIONAL OBSERVATIONS

CITY           SKY/WX    TMP DP  RH WIND       PRES   REMARKS
NEW YORK CITY  LGT RAIN  77  75  93 VRB3      29.67S
PHILADELPHIA   CLOUDY    84  72  67 SW15G26   29.67S
PITTSBURGH     LGT RAIN  69  68  96 SW3       29.71R
ROANOKE        MOCLDY    82  67  60 S8        29.80F
RICHMOND       CLOUDY    84  71  65 S15       29.76F
RALEIGH        PTCLDY    85  71  63 SW14      29.86R HX  90

$$

ANZ530>537-240200-
MARINE OBSERVATIONS

STATION/POSITION TIME  TEMP    WIND        PRES
                       AIR SEA DIR/SP/G
                 (UTC) (F)     (DEG/KT/KT) (MB)
THOMAS PT LIGHT  0000   84 78  210/ 14/ 15   N/A
BALT KEY BRIDGE  0048   85     210/ 12/ 16 1004.9R
COVE POINT       0048   84     210/ 12/ 15 1007.5R
LEWISETTA        0048   85 81  230/  9/ 11 1007.1R
SOLOMONS ISLAND  0048          220/ 12/ 18   N/A
PINEY POINT      0048          240/ 12/ 13   N/A

$$





USA.gov is the U.S. government's official web portal to all federal, state and local government web resources and services.